Regional Weather Roundup
Issued by NWS Wakefield, VA

Home | Current Version | Previous Version | Text Only | Print | Product List | Glossary Off
Versions: 1 2 3 4 5 6 7 8 9 10 11 12 13 14 15 16 17 18 19 20 21 22 23 24 25 26 27 28 29 30 31 32 33 34 35 36 37 38 39 40 41 42 43 44 45 46 47 48 49 50

000
ASUS41 KAKQ 301110
RWRAKQ

REGIONAL WEATHER ROUNDUP
NATIONAL WEATHER SERVICE WAKEFIELD VA
700 AM EDT SAT AUG 30 2014

Note: "fair" indicates few or no clouds below 12,000 feet with no
significant weather and/or obstructions to visibility. * = Denotes
station may not report precipitation (e.g., rain,snow,etc.),
thunder or fog.

VAZ042-051-052>054-056-301200-
NORTHERN VIRGINIA

CITY           SKY/WX    TMP DP  RH WIND       PRES   REMARKS
WASH NATIONAL  CLOUDY    72  61  68 SE6       30.24R
DULLES         CLOUDY    67  63  87 S3        30.23R
FORT BELVOIR   CLOUDY    67  63  87 CALM      30.23S
QUANTICO       CLOUDY    72  63  73 S9        30.23R
FREDERICKSBRG* CLOUDY    68  64  87 CALM      30.22R
STAFFORD*      CLOUDY    65  65 100 CALM      30.27R
WARRENTON      CLOUDY    68  68  99 CALM      30.23R
CULPEPER*      CLOUDY   N/A N/A N/A CALM      30.23S
MANASSAS*      CLOUDY    68  66  94 CALM      30.23R
LEESBURG*      CLOUDY    68  64  88 CALM      30.24R
WINCHESTER     MOCLDY    66  59  77 S3        30.20S
$$

VAZ048-049-060>072-079>083-301200-
CENTRAL AND SOUTH CENTRAL VIRGINIA...AND NORTH CENTRAL NORTH CAROLINA

CITY           SKY/WX    TMP DP  RH WIND       PRES   REMARKS
RICHMOND       CLOUDY    70  64  81 E3        30.22S
CHESTERFIELD*  CLOUDY   N/A N/A N/A E5        30.23R
PETERSBURG*    CLOUDY    69  65  85 CALM      30.23R
HANOVER        CLOUDY    67  64  90 CALM      30.24R
TAPPAHANNOCK*  MOCLDY    68  63  84 CALM      30.23S
CHARLOTTSVILLE CLOUDY    67  63  87 CALM      30.23R
ORANGE*        CLOUDY    66  63  88 CALM      30.24R
LOUISA*        CLOUDY    66  63  88 CALM      30.22R
FARMVILLE*     CLOUDY    72  70  94 CALM      30.21R
SOUTH HILL*    MOCLDY    70  70 100 CALM      30.27R
ROANOKE RAPIDS PTSUNNY   64  64 100 CALM      30.21S FOG
RALEIGH        CLOUDY    72  67  84 SE3       30.22R
$$

VAZ088>098-301200-
SOUTHEAST VIRGINIA

CITY           SKY/WX    TMP DP  RH WIND       PRES   REMARKS
NORFOLK        CLOUDY    74  64  71 E3        30.22R
VIRGINIA BEACH CLOUDY    73  64  73 SE3       30.21R
NORFOLK NAVAL  CLOUDY    74  64  71 SE3       30.23R
WEST POINT*    CLOUDY    71  64  79 CALM      30.24S
NEWPORT NEWS   CLOUDY    74  66  76 CALM      30.22R
LANGLEY AFB    CLOUDY    74  65  73 SE5       30.22R
FORT EUSTIS    CLOUDY    73  64  74 E3        30.20R
WILLIAMSBURG*  PTCLDY    73  66  78 E3        30.23R
FRANKLIN*      CLOUDY    70  66  88 CALM      30.22R
WAKEFIELD      CLOUDY    71  66  84 CALM      30.22R
$$

VAZ020-022-025-037-045-301200-
WESTERN AND SOUTHWEST VIRGINIA

CITY           SKY/WX    TMP DP  RH WIND       PRES   REMARKS
STAUNTON*      CLEAR     65  61  86 CALM      30.24R
HOT SPRINGS VA DRZL/FOG  63  63 100 S7        30.35R VSB<1/4
LYNCHBURG      CLOUDY    70  68  93 S6        30.25R
DANVILLE       CLOUDY    72  70  93 E3        30.22S
MARTINSVILLE   CLOUDY    71  71 100 CALM      30.25S FOG
ROANOKE        CLOUDY    69  67  93 S3        30.26R
BLACKSBURG     CLOUDY    66  66 100 CALM      30.30R FOG
DUBLIN*        CLOUDY    68  68 100 CALM      30.29R FOG
MARION*        CLOUDY   N/A N/A N/A CALM      30.30F FOG
HILLSVILLE*    CLOUDY    67  66  98 NW3       30.30R FOG
RICHLANDS*     SUNNY     72  65  80 SE3       30.26S
WISE*          CLEAR     68  66  94 S3        30.26S
ABINGDON*      CLEAR     69  67  93 CALM      30.24S
$$

MDZ021>025-VAZ099-100-301200-
SOUTHERN MARYLAND AND THE DELMARVA PENINSULA

CITY           SKY/WX    TMP DP  RH WIND       PRES   REMARKS
PATUXENT RIVER MOCLDY    70  63  78 S3        30.23R
BAY BRIDGE APT   N/A     68  61  77 SE7       30.24R
LEONARDTOWN    MOCLDY    68  61  77 CALM      30.25R
DOVER          PTCLDY    61  61 100 N1        30.23R
GEORGETOWN     MOCLDY    60  57  89 CALM      30.26R
EASTON         MOCLDY    64  64 100 CALM      30.28R
CAMBRIDGE      CLOUDY    63  59  88 CALM      30.24R
SALISBURY      CLOUDY    62  58  86 CALM      30.24S
OCEAN CITY     MOCLDY    62  59  90 CALM      30.24S
WALLOPS ISLAND CLEAR     68  63  84 CALM      30.25R
ACCOMACK*      NOT AVBL
$$

NCZ012>017-030>032-301200-
EASTERN NORTH CAROLINA

CITY           SKY/WX    TMP DP  RH WIND       PRES   REMARKS
ELIZABETH CITY MOCLDY    73  68  84 E5        30.22R
AHOSKIE*       PTCLDY    69  65  89 CALM      30.22R
EDENTON*       CLOUDY    73  70  91 CALM      30.21R
CURRITUCK*     CLOUDY    75  65  70 E3        30.23R
KILL DEVIL HLS CLOUDY    75  69  81 E6        30.20S
MANTEO         CLOUDY    75  70  85 E7        30.21S
CAPE HATTERAS  NOT AVBL
GOLDSBORO      CLEAR     69  69  98 SE2       30.20R
WASHINGTON     PTCLDY    70  67  92 CALM      30.21R
GREENVILLE     CLEAR     72  68  88 CALM      30.21R
NEW BERN       CLOUDY    74  71  91 CALM      30.21R
WILMINGTON     MOCLDY    73  71  93 NE3       30.18R
$$

VAZ048-301200-
ELSEWHERE

CITY           SKY/WX    TMP DP  RH WIND       PRES   REMARKS
HARRISBURG PA  CLOUDY    63  59  87 E5        30.23R
BALTIMORE      CLOUDY    68  62  81 SE3       30.24R
ANNAPOLIS      CLOUDY    71  62  73 SE9       30.24R
ANDREWS AFB    CLOUDY    66  63  89 SE5       30.24R
WILMINGTON DE  CLOUDY    65  60  84 CALM      30.27R
PHILADELPHIA   PTCLDY    63  58  83 E7        30.26R
WILDWOOD NJ*   CLEAR     61  55  82 CALM      30.26R
ATLANTIC CITY  PTCLDY    56  54  93 MISG      30.26R
HENDERSON NC   CLOUDY    70  66  86 CALM      30.23R
GREENSBORO     PTCLDY    72  71  97 CALM      30.22R FOG
ROCKY MOUNT    CLEAR     69  66  90 NW3       30.22R
FAYETTEVILLE   FOG       72  71  97 NE5       30.19R VSB 3/4
CHARLOTTE      PTCLDY    71  68  90 CALM      30.20R
$$

VAZ100-301200-
MARINE

STATION/POSITION TIME  TEMP    WIND        PRES    WAVE   SWELL
                       AIR SEA DIR/SP/G            HT/PER HT/PER
                 (UTC) (F)     (DEG/KT/KT) (MB)    (FT/S) (FT/S)
44066 TX TWR #4  1100   71 72  130/  8/ 10 1025.2R   3/ 9   3/ 9
CAPE MAY NJ      1100   66 78  100/  2/  3 1023.7R
LEWES DE         1100   67 76  190/  1/  2 1023.9R
15NM E FENWICK I 1100   73 73              1024.2R   3/ 9
OCEAN-CITY-INLET 1100   72 75  160/  5/  8 1023.6R
WACHAPREAGUE VA  1100   71 78   CALM  /  2 1023.7R
THOMAS POINT MD  1100   70 77  140/  7/  8 1024.8R
GOOSES REEF MD   1100   72     160/ 10/ 12 1024.0S
COVE POINT MD    1100   72     160/ 10/ 11 1023.5F
SOLOMONS ISLAND  1100      79                N/A
BISHOPS HEAD MD  1100   71 75  130/  7/  9 1023.4R
PINEY POINT MD   1100          160/ 11/ 12   N/A
POTOMAC MD       1100   75     170/ 10/ 12 1022.8F
CAMBRIDGE MD     1100   66 78   CALM  /  2 1023.8R
LEWISETTA VA     1100   72 78  160/  5/  6 1023.1S
RAPPAHANNOCK LGT 1100          100/  6/  6 1024.1R
STINGRAY PT      1100   75     140/  8/ 12   N/A
YORK RVR RNG VA  1100   75     120/ 11/ 13 1022.7S
YORKTOWN VA      1100   76 80  120/  5/  6 1023.0R
JAMESTOWN VA     1100   74     140/  8/ 12   N/A
DOMINION TERM VA 1100   76     110/  8/  9 1023.2R
KIPTOPEKE VA     1100      81   90/  5/  6   N/A
CHES BAY BRIDGE  1100   76 78   70/ 11/ 12 1022.8R
CAPE HENRY VA    1100   75     100/ 10/ 11 1022.1R
CHESAPEAKE LGHT  1000   75      90/ 11/ 12 1023.7R
WILLOUBY STN VA  1100   76     120/  8/ 10 1022.0R
S CRANEY ISL VA  1100           70/  4/  5 1022.9R
CAPE HENRY BUOY  1100      76                N/A     2/ 8
1ST LANDING BUOY 1100   76     100/ 10/ 12 1022.8R
CAPE CHARLES BUO 1100      76                N/A     2/ 8   2/ 8
OFFSHORE WE BUOY 1100      76                N/A     3/ 8   2/ 8
64NM E OF VA BCH 1100   76 76   80/ 10/ 10 1023.0R   3/ 7   3/ 7
DUCK PIER NC     1100   76 77  100/ 12/ 15 1022.3R
44056 DUCK FRF   1100                        N/A     3/ 8
OREGON INLET NC  1100   76 78   60/  8/ 11 1022.8R
HATTERAS NC      1100   79 81  100/  3/  4 1022.9R
DIAMOND SHLS NC  1100   80     140/  6/  8 1022.3R   4/ 8   3/ 8
CAPE LOOKOUT NC  1000   80      50/  4/  4 1021.7R
$$


USA.gov is the U.S. government's official web portal to all federal, state and local government web resources and services.